When you browse on this site, cookies collect data to enhance your experience and personalize the content and advertising you see.
Visit our Privacy Policy to learn more. By continuing to use the site, you agree to this use of cookies and data.
  • In Romania
  • List of Countries
  • For 7 days
  • Water Temperature
  • Satellite Maps
  • Weather Map
  • Weather Widgets
  • user-avatar
    Login

    Hourly Weather Lapszow

    Today, 22 February, Friday

    Time Temperature Precipitation Wind Pressure Humidity
    00:00 +5°C° 0.4 mm 5 mps 745 mmHg 86%
    01:00 +5°C° 0 mm 4 mps 745 mmHg 86%
    02:00 +5°C° 0.7 mm 4 mps 745 mmHg 87%
    03:00 +5°C° 0.7 mm 5 mps 745 mmHg 88%
    04:00 +5°C° 0.7 mm 5 mps 745 mmHg 89%
    05:00 +2°C° 0.6 mm 6 mps 746 mmHg 87%
    06:00 -1°C° 0.6 mm 7 mps 746 mmHg 85%
    07:00 -3°C° 0 mm 7 mps 748 mmHg 81%
    08:00 -3°C° 0.1 mm 7 mps 749 mmHg 74%
    09:00 -4°C° 0.1 mm 7 mps 750 mmHg 68%
    10:00 -4°C° 0.1 mm 7 mps 752 mmHg 62%
    11:00 -4°C° 0 mm 7 mps 752 mmHg 57%
    12:00 -4°C° 0 mm 7 mps 753 mmHg 51%
    13:00 -4°C° 0 mm 7 mps 754 mmHg 46%
    14:00 -4°C° 0 mm 7 mps 755 mmHg 45%
    15:00 -4°C° 0 mm 7 mps 755 mmHg 45%
    16:00 -6°C° 0 mm 7 mps 756 mmHg 44%
    17:00 -5°C° 0 mm 6 mps 756 mmHg 45%
    18:00 -6°C° 0 mm 6 mps 757 mmHg 46%
    19:00 -6°C° 0 mm 5 mps 758 mmHg 47%
    20:00 -6°C° 0 mm 5 mps 758 mmHg 44%
    21:00 -6°C° 0 mm 5 mps 759 mmHg 42%
    22:00 -6°C° 0 mm 5 mps 760 mmHg 40%
    23:00 -6°C° 0 mm 5 mps 760 mmHg 40%

    Tomorrow, 23 February, Saturday

    Time Temperature Precipitation Wind Pressure Humidity
    00:00 -6°C° 0 mm 5 mps 761 mmHg 41%
    01:00 -7°C° 0 mm 5 mps 761 mmHg 41%
    02:00 -7°C° 0 mm 4 mps 761 mmHg 43%
    03:00 -7°C° 0 mm 4 mps 761 mmHg 44%
    04:00 -7°C° 0 mm 4 mps 761 mmHg 46%
    05:00 -6°C° 0 mm 3 mps 762 mmHg 47%
    06:00 -6°C° 0 mm 3 mps 762 mmHg 49%
    07:00 -6°C° 0 mm 3 mps 762 mmHg 51%
    08:00 -6°C° 0 mm 3 mps 762 mmHg 48%
    09:00 -5°C° 0 mm 3 mps 763 mmHg 45%
    10:00 -4°C° 0 mm 3 mps 763 mmHg 43%
    11:00 -4°C° 0 mm 3 mps 763 mmHg 40%
    12:00 -2°C° 0 mm 3 mps 763 mmHg 37%
    13:00 -2°C° 0 mm 2 mps 762 mmHg 33%
    14:00 -2°C° 0 mm 2 mps 762 mmHg 34%
    15:00 -2°C° 0 mm 2 mps 762 mmHg 34%
    16:00 -2°C° 0 mm 2 mps 762 mmHg 35%
    17:00 0°C° 0 mm 1 mps 762 mmHg 38%
    18:00 -1°C° 0 mm 1 mps 762 mmHg 42%
    19:00 -2°C° 0 mm 1 mps 762 mmHg 45%
    20:00 -2°C° 0 mm 1 mps 762 mmHg 45%
    21:00 -3°C° 0 mm 0 mps 762 mmHg 46%
    22:00 -3°C° 0 mm 0 mps 762 mmHg 47%
    23:00 -2°C° 0 mm 1 mps 761 mmHg 47%

    Day after tomorrow, 24 February, Sunday

    Time Temperature Precipitation Wind Pressure Humidity
    00:00 -2°C° 0 mm 1 mps 761 mmHg 47%
    01:00 -2°C° 0 mm 1 mps 761 mmHg 47%
    02:00 -2°C° 0 mm 1 mps 761 mmHg 45%
    03:00 -1°C° 0 mm 1 mps 761 mmHg 44%
    04:00 -1°C° 0 mm 1 mps 761 mmHg 43%
    05:00 -1°C° 0 mm 1 mps 760 mmHg 43%
    06:00 -1°C° 0 mm 1 mps 760 mmHg 43%
    07:00 -3°C° 0 mm 2 mps 760 mmHg 43%
    08:00 -2°C° 0 mm 2 mps 760 mmHg 38%
    09:00 -1°C° 0 mm 2 mps 760 mmHg 32%
    10:00 +1°C° 0 mm 3 mps 760 mmHg 27%
    11:00 +2°C° 0 mm 3 mps 759 mmHg 26%
    12:00 +3°C° 0 mm 3 mps 759 mmHg 25%
    13:00 +4°C° 0 mm 3 mps 759 mmHg 23%
    14:00 +3°C° 0 mm 3 mps 759 mmHg 28%
    15:00 +3°C° 0 mm 3 mps 759 mmHg 32%
    16:00 +3°C° 0 mm 2 mps 758 mmHg 37%
    17:00 +1°C° 0 mm 3 mps 758 mmHg 40%
    18:00 0°C° 0 mm 3 mps 758 mmHg 43%
    19:00 -1°C° 0 mm 3 mps 759 mmHg 47%
    20:00 -1°C° 0 mm 3 mps 759 mmHg 48%
    21:00 -1°C° 0 mm 3 mps 759 mmHg 50%
    22:00 -1°C° 0 mm 3 mps 759 mmHg 51%
    23:00 -1°C° 0 mm 3 mps 759 mmHg 53%

    25 February, Monday

    Time Temperature Precipitation Wind Pressure Humidity
    00:00 -1°C° 0 mm 3 mps 759 mmHg 55%
    01:00 -1°C° 0 mm 3 mps 759 mmHg 56%
    02:00 -1°C° 0 mm 3 mps 758 mmHg 57%
    03:00 -2°C° 0 mm 4 mps 758 mmHg 59%
    04:00 -2°C° 0 mm 4 mps 758 mmHg 60%
    05:00 -2°C° 0 mm 4 mps 758 mmHg 62%
    06:00 -2°C° 0 mm 4 mps 758 mmHg 64%
    07:00 -2°C° 0 mm 4 mps 758 mmHg 66%
    08:00 -1°C° 0 mm 4 mps 758 mmHg 65%
    09:00 +1°C° 0 mm 5 mps 758 mmHg 63%
    10:00 +2°C° 0 mm 5 mps 758 mmHg 62%
    11:00 +3°C° 0 mm 5 mps 758 mmHg 63%
    12:00 +5°C° 0 mm 4 mps 758 mmHg 63%
    13:00 +6°C° 0 mm 4 mps 758 mmHg 64%
    14:00 +6°C° 0 mm 4 mps 758 mmHg 66%
    15:00 +6°C° 0 mm 4 mps 758 mmHg 68%
    16:00 +7°C° 0 mm 3 mps 757 mmHg 70%
    17:00 +4°C° 0 mm 3 mps 758 mmHg 76%
    18:00 +3°C° 0 mm 3 mps 758 mmHg 81%
    19:00 +2°C° 0 mm 3 mps 758 mmHg 87%
    20:00 +2°C° 0 mm 3 mps 758 mmHg 88%
    21:00 +1°C° 0 mm 3 mps 757 mmHg 88%
    22:00 +1°C° 0 mm 3 mps 757 mmHg 89%
    23:00 0°C° 0 mm 4 mps 757 mmHg 89%

    26 February, Tuesday

    Time Temperature Precipitation Wind Pressure Humidity
    00:00 0°C° 0 mm 4 mps 756 mmHg 88%
    01:00 0°C° 0 mm 4 mps 756 mmHg 87%
    02:00 0°C° 0 mm 5 mps 755 mmHg 86%
    03:00 0°C° 0 mm 5 mps 754 mmHg 86%
    04:00 -1°C° 0 mm 6 mps 754 mmHg 85%
    05:00 -1°C° 0 mm 6 mps 753 mmHg 81%
    06:00 +1°C° 0 mm 6 mps 753 mmHg 78%
    07:00 +1°C° 0 mm 6 mps 753 mmHg 75%
    08:00 +2°C° 0 mm 7 mps 752 mmHg 70%
    09:00 +3°C° 0 mm 7 mps 752 mmHg 64%
    10:00 +5°C° 0 mm 8 mps 751 mmHg 59%
    11:00 +5°C° 0 mm 8 mps 751 mmHg 59%
    12:00 +5°C° 0 mm 7 mps 751 mmHg 59%
    13:00 +6°C° 0 mm 7 mps 750 mmHg 60%
    14:00 +5°C° 0 mm 7 mps 750 mmHg 63%
    15:00 +5°C° 0 mm 7 mps 750 mmHg 66%
    16:00 +5°C° 0 mm 6 mps 750 mmHg 69%
    17:00 +4°C° 0 mm 6 mps 750 mmHg 73%
    18:00 +3°C° 0 mm 6 mps 751 mmHg 77%
    19:00 +3°C° 0 mm 6 mps 751 mmHg 81%
    20:00 +2°C° 0 mm 6 mps 751 mmHg 80%
    21:00 +2°C° 0 mm 6 mps 751 mmHg 80%
    22:00 +2°C° 0 mm 6 mps 751 mmHg 79%
    23:00 +1°C° 0 mm 5 mps 751 mmHg 77%

    27 February, Wednesday

    Time Temperature Precipitation Wind Pressure Humidity
    00:00 +1°C° 0 mm 5 mps 751 mmHg 76%
    01:00 0°C° 0 mm 5 mps 751 mmHg 75%
    02:00 0°C° 0 mm 5 mps 751 mmHg 76%
    03:00 -1°C° 0 mm 4 mps 751 mmHg 76%
    04:00 -1°C° 0 mm 4 mps 751 mmHg 77%
    05:00 -1°C° 0 mm 4 mps 751 mmHg 77%
    06:00 -1°C° 0 mm 4 mps 751 mmHg 76%
    07:00 -2°C° 0 mm 4 mps 751 mmHg 76%
    08:00 0°C° 0 mm 4 mps 751 mmHg 69%
    09:00 +1°C° 0 mm 5 mps 751 mmHg 61%
    10:00 +3°C° 0 mm 5 mps 751 mmHg 54%
    11:00 +5°C° 0 mm 5 mps 751 mmHg 50%
    12:00 +6°C° 0 mm 5 mps 750 mmHg 46%
    13:00 +7°C° 0 mm 5 mps 750 mmHg 42%
    14:00 +7°C° 0 mm 4 mps 750 mmHg 42%
    15:00 +7°C° 0 mm 4 mps 750 mmHg 43%
    16:00 +8°C° 0 mm 3 mps 749 mmHg 44%
    17:00 +5°C° 0 mm 3 mps 749 mmHg 50%
    18:00 +5°C° 0 mm 2 mps 749 mmHg 55%
    19:00 +4°C° 0 mm 2 mps 749 mmHg 60%
    20:00 +4°C° 0 mm 2 mps 748 mmHg 62%
    21:00 +3°C° 0 mm 2 mps 748 mmHg 65%
    22:00 +3°C° 0 mm 2 mps 748 mmHg 67%
    23:00 +1°C° 0 mm 3 mps 747 mmHg 67%
    Show more